Location: Elstree
(51.6403°N, 0.2969°W)
Time: 15:45:38
(UTC+00:00)

SJ 16-02 - Pass Details

Date: 23 June 2021
Orbit: 606 x 616 km, 75.0° (Epoch: 29 July)

Event Time Altitude Azimuth Distance (km) Brightness Sun altitude
Rises 23:52:30 0° 329° (NNW) 2,876 5.9 -14.9°
Reaches altitude 10° 23:54:56 10° 319° (NW) 1,967 4.7 -14.9°
Maximum altitude 23:58:45 30° 258° (WSW) 1,108 2.5 -14.9°
Enters shadow 00:00:49 20° 215° (SW) 1,416 2.7 -14.9°
